SES-5 (EGNOS/PRN 136)

Last updated on Wed Sep 17 2025 00:03:27 GMT+0000 (Coordinated Universal Time)

1 38652U 12036A 25259.58451203 .00000014 00000+0 00000+0 0 9990 2 38652 0.0549 321.0898 0002090 223.0728 27.0223 1.00271299 41721
UTC large
Height (km)
Speed (km/s)
/
Latitude / Longitude
Inclination (degrees)
Orbital Period (minutes)
Azimuth
Elevation
Range (km)
Doppler Factor

Next 0 passes for location: London (51.5072 / 0.1276)

Sorry there are no passes over London.